Home   Weather   Fort Wayne   Past weeks

Flag for USA Past Weather in Fort Wayne, Indiana, USA — Yesterday and Last 2 Weeks

45 °F

Rain. Fog.

Feels Like: 42 °F
Forecast: 44 / 53 °F
Wind: 6 mph from Northeast

Location: Fort Wayne International Airport

Current Time: Oct 27, 2016 at 3:09:08 AM

Latest Report: Oct 27, 2016 at 2:54 AM

Visibility: 3 mi

Pressure: 29.98 "Hg

Humidity: 93%

Dew Point: 43 °F

Location of Fort WayneLocation

Past Weather in Fort Wayne — Graph


Fort Wayne Temperature Yesterday

Maximum temperature yesterday: 51 °F (at 2:54 PM)
Minimum temperature yesterday: 43 °F (at 8:54 AM)
Average temperature yesterday: 47 °F

High & Low Weather Summary for the Past Weeks

High80 °F (Oct 17, 3:54 PM)97% (Oct 19, 7:54 AM)30.48 "Hg (Oct 19, 7:54 AM)
Low34 °F (Oct 25, 7:54 AM)40% (Oct 12, 2:54 PM)29.64 "Hg (Oct 17, 10:54 PM)
Average56 °F74%30.09 "Hg
* Reported Oct 12 1:54 AM — Oct 27 1:54 AM, Fort Wayne, Weather by CustomWeather, © 2016

Note: Actual official high and low records may vary slightly from our data, if they occured in-between our weather recording intervals... More about our weather records


Fort Wayne Weather History for the Previous 24 Hours

Scroll right to see more
Time TempWeatherWind HumidityBarometerVisibility
1:54 AM
Thu, Oct 27
45 °FLight rain. Mostly cloudy.6 mph93%29.99 "Hg9 mi
12:54 AM45 °FLow clouds.10 mph90%30.02 "Hg10 mi
11:54 PM
Wed, Oct 26
45 °FMostly cloudy.7 mph90%30.03 "Hg10 mi
10:54 PM46 °FOvercast.13 mph89%30.06 "Hg10 mi
9:54 PM47 °FLight rain. Mostly cloudy.9 mph90%30.06 "Hg10 mi
8:54 PM48 °FMostly cloudy.7 mph83%30.07 "Hg10 mi
7:54 PM49 °FLight rain. Mostly cloudy.10 mph77%30.09 "Hg8 mi
6:54 PM50 °FLight rain. Mostly cloudy.10 mph68%30.11 "Hg10 mi
5:54 PM51 °FMore clouds than sun.10 mph63%30.13 "Hg10 mi
4:54 PM51 °FCloudy.14 mph63%30.16 "Hg10 mi
3:54 PM51 °FMostly cloudy.15 mph63%30.18 "Hg10 mi
2:54 PM51 °FMostly cloudy.14 mph63%30.21 "Hg10 mi
1:54 PM48 °FCloudy.16 mph71%30.22 "Hg10 mi
12:54 PM48 °FMostly cloudy.18 mph71%30.28 "Hg10 mi
11:54 AM46 °FMore clouds than sun.16 mph77%30.30 "Hg10 mi
10:54 AM44 °FOvercast.17 mph82%30.33 "Hg10 mi
9:54 AM43 °FLight rain. More clouds than sun.13 mph86%30.38 "Hg10 mi
8:54 AM43 °FLight rain. Mostly cloudy.12 mph82%30.40 "Hg8 mi
7:54 AM44 °FMostly cloudy.9 mph76%30.37 "Hg10 mi
6:54 AM45 °FLight rain. Overcast.9 mph68%30.35 "Hg10 mi
5:54 AM45 °FOvercast.9 mph65%30.37 "Hg10 mi
4:54 AM46 °FMostly cloudy.10 mph63%30.37 "Hg10 mi
3:54 AM46 °FOvercast.8 mph63%30.38 "Hg10 mi
Weather by CustomWeather, © 2016

See weather overviewHow to use our weather pages